Location: Newark
(44.9861°N, 0.2536°E)
Time: 22:12:10
(UTC+00:00)

HuskySat-1 - Pass Details

Date: 10 July 2020
Orbit: 457 x 471 km, 51.6° (Epoch: 10 August)

Event Time Altitude Azimuth Distance (km) Brightness Sun altitude
Exits shadow 00:18:46 19° 84° (E) 1,178 ? -22.7°
Drops below altitude 10° 00:19:59 10° 73° (ENE) 1,610 ? -22.7°
Sets 00:22:14 0° 65° (ENE) 2,486 ? -22.7°
